Leesburg, VA

6:15 AM EST on December 08, 2019 (GMT -0500)
Leesburg Executive

Weather History for KJYO - April, 2019

Change the Weather History Date:

Monday, April 1, 2019

  Actual Average (WUND) Record (WUND)
Temperature  
Mean Temperature 40 °F -  
Max Temperature 50 °F - - (-1)
Min Temperature 30 °F - - (-1)
Degree Days  
Heating Degree Days 25    
Moisture  
Dew Point 21 °F    
Average Humidity 49    
Maximum Humidity 81    
Minimum Humidity 30    
Precipitation  
Precipitation 0.00 in - - ()
Sea Level Pressure  
Sea Level Pressure 30.31 in    
Wind  
Wind Speed 11 mph (NNW)    
Max Wind Speed 24 mph    
Max Gust Speed 30 mph    
Visibility 10 miles    
Events      
Averages and records for this station are not official NWS values.
T = Trace of Precipitation, MM = Missing Value Source: NWS Daily Summary

Daily Weather History Graph

Daily Weather History Graph

Search for Another Location

Airport or City:

Astronomy

Apr. 01, 2019 Rise Set
Actual Time 6:55 AM EDT 7:33 PM EDT
Civil Twilight 6:28 AM EDT 8:00 PM EDT
Nautical Twilight 5:56 AM EDT 8:32 PM EDT
Astronomical Twilight 5:23 AM EDT 9:05 PM EDT
Moon 5:24 AM EDT (4/1) 4:08 PM EDT (4/1)
Length of Visible Light 13h 32m
Length of Day
12h 38m
Waning Crescent, 12% of the Moon is Illuminated
Apr 1
Waning Crescent
Apr 5
New
Apr 12
First Quarter
Apr 19
Full
Apr 26
Last Quarter

Hourly Weather History & Observations

Time (EDT) Temp. Windchill Dew Point Humidity Pressure Visibility Wind Dir Wind Speed Gust Speed Precip Events Conditions
12:15 AM 33.8 °F 21.3 °F 17.6 °F 52% 30.21 in 10.0 mi WNW 24.2 mph 29.9 mph N/A   Scattered Clouds
12:35 AM 33.8 °F 22.8 °F 17.6 °F 52% 30.21 in 10.0 mi NW 18.4 mph 29.9 mph N/A   Mostly Cloudy
12:55 AM 33.8 °F 23.9 °F 17.6 °F 52% 30.22 in 10.0 mi NW 15.0 mph 24.2 mph N/A   Overcast
1:15 AM 33.8 °F 23.2 °F 17.6 °F 52% 30.22 in 10.0 mi NW 17.3 mph 21.9 mph N/A   Overcast
1:35 AM 33.8 °F 23.9 °F 17.6 °F 52% 30.23 in 10.0 mi NW 15.0 mph 24.2 mph N/A   Mostly Cloudy
1:55 AM 33.8 °F 24.8 °F 17.6 °F 52% 30.23 in 10.0 mi NW 12.7 mph - N/A   Mostly Cloudy
2:15 AM 33.8 °F 22.5 °F 17.6 °F 52% 30.23 in 10.0 mi NNW 19.6 mph 25.3 mph N/A   Overcast
2:35 AM 33.8 °F 25.3 °F 17.6 °F 52% 30.23 in 10.0 mi NW 11.5 mph 24.2 mph N/A   Mostly Cloudy
2:55 AM 33.8 °F 23.5 °F 17.6 °F 52% 30.23 in 10.0 mi NNW 16.1 mph 24.2 mph N/A   Scattered Clouds
3:15 AM 33.8 °F 26.4 °F 17.6 °F 52% 30.23 in 10.0 mi NNW 9.2 mph 28.8 mph N/A   Mostly Cloudy
3:35 AM 32.0 °F 24.2 °F 17.6 °F 55% 30.24 in 10.0 mi NNW 9.2 mph 18.4 mph N/A   Scattered Clouds
3:55 AM 33.8 °F 27.0 °F 17.6 °F 52% 30.24 in 10.0 mi NNW 8.1 mph 17.3 mph N/A   Mostly Cloudy
4:15 AM 33.8 °F 25.8 °F 19.4 °F 56% 30.25 in 10.0 mi NW 10.4 mph - N/A   Overcast
4:35 AM 32.0 °F 24.2 °F 19.4 °F 60% 30.25 in 10.0 mi NW 9.2 mph 17.3 mph N/A   Overcast
4:55 AM 32.0 °F 23.6 °F 21.2 °F 64% 30.25 in 10.0 mi NNW 10.4 mph 16.1 mph N/A   Overcast
5:15 AM 32.0 °F 24.2 °F 21.2 °F 64% 30.25 in 10.0 mi NNW 9.2 mph - N/A   Overcast
5:35 AM 32.0 °F 24.8 °F 21.2 °F 64% 30.26 in 10.0 mi NW 8.1 mph - N/A   Mostly Cloudy
5:55 AM 32.0 °F 28.7 °F 21.2 °F 64% 30.26 in 10.0 mi NNW 3.5 mph - N/A   Scattered Clouds
6:15 AM 32.0 °F - 21.2 °F 64% 30.27 in 10.0 mi Calm Calm - N/A   Overcast
6:35 AM 32.0 °F - 21.2 °F 64% 30.28 in 10.0 mi Calm Calm - N/A   Overcast
6:55 AM 30.2 °F 25.4 °F 21.2 °F 69% 30.28 in 10.0 mi WNW 4.6 mph - N/A   Mostly Cloudy
7:15 AM 30.2 °F 22.6 °F 21.2 °F 69% 30.29 in 10.0 mi NW 8.1 mph - N/A   Scattered Clouds
7:35 AM 32.0 °F 28.7 °F 21.2 °F 64% 30.30 in 10.0 mi NW 3.5 mph - N/A   Clear
7:55 AM 32.0 °F 28.7 °F 23.0 °F 69% 30.31 in 10.0 mi NW 3.5 mph - N/A   Clear
8:15 AM 33.8 °F 27.0 °F 23.0 °F 65% 30.32 in 10.0 mi NW 8.1 mph - N/A   Clear
8:35 AM 35.6 °F 25.9 °F 23.0 °F 60% 30.33 in 10.0 mi NNW 16.1 mph 23.0 mph N/A   Scattered Clouds
8:55 AM 35.6 °F 26.6 °F 23.0 °F 60% 30.34 in 10.0 mi NNW 13.8 mph 23.0 mph N/A   Scattered Clouds
9:15 AM 35.6 °F 25.9 °F 21.2 °F 56% 30.35 in 10.0 mi North 16.1 mph 25.3 mph N/A   Scattered Clouds
9:35 AM 35.6 °F 25.9 °F 19.4 °F 52% 30.36 in 10.0 mi North 16.1 mph 24.2 mph N/A   Scattered Clouds
9:55 AM 37.4 °F 27.5 °F 19.4 °F 48% 30.37 in 10.0 mi NNW 18.4 mph 26.5 mph N/A   Mostly Cloudy
10:15 AM 37.4 °F 29.3 °F 19.4 °F 48% 30.38 in 10.0 mi NNW 12.7 mph 21.9 mph N/A   Scattered Clouds
10:35 AM 37.4 °F 28.2 °F 19.4 °F 48% 30.37 in 10.0 mi North 16.1 mph 21.9 mph N/A   Clear
10:55 AM 39.2 °F 31.2 °F 19.4 °F 45% 30.38 in 10.0 mi North 13.8 mph 21.9 mph N/A   Clear
11:15 AM 41.0 °F 32.8 °F 19.4 °F 42% 30.38 in 10.0 mi NNW 16.1 mph 27.6 mph N/A   Clear
11:35 AM 41.0 °F 33.9 °F 21.2 °F 45% 30.37 in 10.0 mi North 12.7 mph 18.4 mph N/A   Clear
11:55 AM 41.0 °F 32.5 °F 21.2 °F 45% 30.36 in 10.0 mi NW 17.3 mph 25.3 mph N/A   Clear
12:15 PM 42.8 °F 36.2 °F 21.2 °F 42% 30.36 in 10.0 mi NW 12.7 mph 24.2 mph N/A   Clear
12:35 PM 42.8 °F 39.3 °F 21.2 °F 42% 30.36 in 10.0 mi NW 5.8 mph 24.2 mph N/A   Clear
12:55 PM 42.8 °F 36.6 °F 19.4 °F 39% 30.35 in 10.0 mi North 11.5 mph 19.6 mph N/A   Clear
1:15 PM 42.8 °F 36.6 °F 19.4 °F 39% 30.35 in 10.0 mi NW 11.5 mph 20.7 mph N/A   Clear
1:35 PM 44.6 °F 38.8 °F 21.2 °F 39% 30.34 in 10.0 mi North 11.5 mph 23.0 mph N/A   Clear
1:55 PM 44.6 °F 39.2 °F 19.4 °F 37% 30.33 in 10.0 mi North 10.4 mph 19.6 mph N/A   Clear
2:15 PM 46.4 °F 41.1 °F 21.2 °F 37% 30.33 in 10.0 mi NW 11.5 mph 17.3 mph N/A   Clear
2:35 PM 46.4 °F 41.1 °F 21.2 °F 37% 30.33 in 10.0 mi North 11.5 mph 18.4 mph N/A   Clear
2:55 PM 46.4 °F 42.4 °F 21.2 °F 37% 30.32 in 10.0 mi WNW 8.1 mph - N/A   Clear
3:15 PM 46.4 °F 42.4 °F 21.2 °F 37% 30.32 in 10.0 mi WNW 8.1 mph - N/A   Clear
3:35 PM 48.2 °F - 21.2 °F 34% 30.32 in 10.0 mi WNW 9.2 mph - N/A   Clear
3:55 PM 48.2 °F - 19.4 °F 32% 30.32 in 10.0 mi North 6.9 mph - N/A   Clear
4:15 PM 48.2 °F - 21.2 °F 34% 30.31 in 10.0 mi NNW 6.9 mph 16.1 mph N/A   Clear
4:35 PM 48.2 °F - 19.4 °F 32% 30.31 in 10.0 mi NW 5.8 mph - N/A   Clear
4:55 PM 50.0 °F - 21.2 °F 32% 30.31 in 10.0 mi NNW 5.8 mph - N/A   Clear
5:15 PM 48.2 °F - 19.4 °F 32% 30.31 in 10.0 mi Calm Calm - N/A   Clear
5:35 PM 50.0 °F - 21.2 °F 32% 30.31 in 10.0 mi NW 8.1 mph 16.1 mph N/A   Clear
5:55 PM 48.2 °F - 19.4 °F 32% 30.31 in 10.0 mi Calm Calm - N/A   Clear
6:15 PM 48.2 °F - 19.4 °F 32% 30.31 in 10.0 mi NNW 6.9 mph - N/A   Clear
6:35 PM 48.2 °F - 17.6 °F 30% 30.31 in 10.0 mi Calm Calm - N/A   Clear
6:55 PM 46.4 °F - 19.4 °F 34% 30.31 in 10.0 mi Calm Calm - N/A   Clear
7:15 PM 46.4 °F - 19.4 °F 34% 30.32 in 10.0 mi Calm Calm - N/A   Clear
7:35 PM 46.4 °F - 17.6 °F 32% 30.32 in 10.0 mi Calm Calm - N/A   Clear
7:55 PM 46.4 °F - 19.4 °F 34% 30.32 in 10.0 mi Calm Calm - N/A   Clear
8:15 PM 44.6 °F - 19.4 °F 37% 30.33 in 10.0 mi Calm Calm - N/A   Clear
8:35 PM 44.6 °F - 19.4 °F 37% 30.33 in 10.0 mi Calm Calm - N/A   Clear
8:55 PM 42.8 °F 41.1 °F 19.4 °F 39% 30.35 in 10.0 mi East 3.5 mph - N/A   Clear
9:15 PM 44.6 °F 42.2 °F 19.4 °F 37% 30.36 in 10.0 mi SE 4.6 mph - N/A   Clear
9:35 PM 42.8 °F 41.1 °F 21.2 °F 42% 30.36 in 10.0 mi ESE 3.5 mph - N/A   Clear
9:55 PM 39.2 °F - 24.8 °F 56% 30.36 in 10.0 mi Calm Calm - N/A   Clear
10:15 PM 37.4 °F - 28.4 °F 70% 30.36 in 10.0 mi Calm Calm - N/A   Clear
10:35 PM 35.6 °F - 28.4 °F 75% 30.36 in 10.0 mi Calm Calm - N/A   Clear
10:55 PM 35.6 °F - 28.4 °F 75% 30.36 in 10.0 mi Calm Calm - N/A   Clear
11:15 PM 33.8 °F - 28.4 °F 81% 30.36 in 10.0 mi Calm Calm - N/A   Clear
11:35 PM 35.6 °F - 28.4 °F 75% 30.36 in 10.0 mi Calm Calm - N/A   Clear
11:55 PM 33.8 °F - 28.4 °F 81% 30.36 in 10.0 mi Calm Calm - N/A   Clear